Theta_e
308 308 307 306 306 305 304 302 301 302 302 303 303 304 304 308 310 314 318 318 316 314 307 307 311 316 317 318 320 321 324 325 325 326 327 327 328 328 327 327 329 330 330 329 329
308 308 308 307 306 305 306 304 302 302 302 302 303 304 304 312 311 319 319 318 310 307 308 313 313 314 316 318 319 321 323 323 324 325 325 326 327 327 328 327 327 329 330 329 329
309 309 309 309 306 305 306 307 304 302 302 302 302 304 305 313 318 320 317 310 310 308 315 314 313 314 315 317 319 321 323 323 323 324 324 324 325 325 327 329 328 329 329 329 328
308 309 310 310 307 305 306 307 304 302 302 302 302 304 305 311 325 316 313 310 311 315 319 314 313 314 316 317 318 320 321 321 323 323 323 324 324 324 324 327 328 327 328 327 328
307 309 310 310 306 306 305 303 302 302 302 302 302 304 306 321 321 318 312 311 312 317 318 318 317 315 316 317 317 318 320 320 321 321 322 322 322 323 323 324 326 327 326 327 326
306 309 310 310 306 305 303 303 302 302 302 302 302 305 306 319 319 317 313 314 317 315 317 316 317 317 317 317 318 318 318 319 319 319 320 321 321 320 321 323 324 324 326 325 325
307 310 311 309 306 304 306 307 307 305 302 302 303 307 315 316 315 317 317 315 316 315 315 316 316 316 316 318 317 318 318 318 318 318 319 318 319 320 320 321 321 321 322 324 323
308 309 311 306 306 309 310 310 309 309 307 303 308 309 316 316 314 315 315 315 315 314 315 315 315 314 315 316 317 317 318 318 318 319 318 318 318 319 319 319 319 319 320 321 321
310 310 312 307 309 310 310 310 310 310 310 311 311 313 320 314 312 314 314 315 315 314 314 314 314 313 315 316 317 317 316 317 318 320 319 319 318 319 319 319 320 320 320 320 321
310 311 312 307 310 311 310 310 311 311 312 310 315 319 319 318 313 314 314 314 314 313 314 314 314 316 316 316 316 317 318 319 319 320 319 318 318 319 318 318 319 320 320 320 320
309 311 312 308 310 312 312 318 319 320 321 320 321 319 318 317 316 315 315 315 314 314 315 315 316 317 318 318 318 319 319 318 319 320 319 318 319 318 319 319 319 319 319 319 319
309 310 312 309 311 313 316 319 316 315 317 317 319 316 316 316 316 315 315 315 314 315 317 317 317 317 317 317 317 317 317 317 317 317 317 318 318 318 319 319 319 320 320 319 319
309 308 307 310 311 313 316 316 315 316 317 318 318 314 315 315 315 316 315 315 315 316 317 317 318 318 317 317 317 316 316 316 317 317 318 318 318 319 319 319 319 318 318 319 319
306 304 306 310 315 317 318 316 315 316 318 322 317 315 315 315 316 315 316 315 316 316 317 317 318 318 317 316 316 316 316 317 317 317 317 318 319 320 320 320 320 319 318 318 318
307 306 307 312 316 319 317 314 314 317 329 319 318 316 316 316 317 316 315 315 316 316 317 317 317 317 317 316 316 316 317 317 317 317 318 318 318 319 320 320 320 321 318 317 317
308 310 308 317 316 318 315 315 317 324 327 320 317 317 316 316 316 316 316 315 315 316 316 317 317 317 317 317 317 317 316 316 316 316 318 317 317 319 319 321 320 320 318 317 317
306 309 311 311 317 317 315 316 323 326 323 321 318 318 317 317 317 318 318 318 318 318 318 319 319 318 318 317 317 316 316 317 318 319 319 318 318 320 320 318 318 318 317 317 317
310 307 310 312 314 316 315 319 323 323 323 320 318 317 317 317 317 317 318 318 318 318 318 318 318 318 318 317 318 318 318 319 322 322 321 320 320 319 320 319 317 317 316 316 315
309 312 313 317 319 316 316 321 322 322 321 319 318 316 317 318 318 318 317 317 317 317 317 318 318 318 319 318 318 318 319 318 318 320 321 319 319 318 319 318 318 316 316 315 316
310 316 319 320 318 316 318 320 321 320 319 318 318 317 317 317 317 317 317 317 317 317 316 316 317 316 317 317 317 318 318 319 317 320 321 317 318 318 319 319 318 316 316 316 316
312 320 320 318 316 315 320 322 321 318 316 315 316 317 317 316 315 316 316 316 316 316 317 317 317 316 317 317 317 317 319 318 318 318 319 320 318 317 318 318 318 317 316 316 316
312 319 319 316 315 319 323 320 316 316 315 315 315 315 316 316 316 316 316 316 315 316 316 317 318 319 317 317 316 316 317 318 320 322 321 318 320 317 317 318 317 316 316 316 316
310 313 317 313 316 320 318 317 316 316 315 315 315 315 316 316 316 315 315 315 315 315 316 316 316 317 315 315 315 315 315 316 316 316 319 322 320 316 318 318 317 317 315 315 316
311 315 316 315 315 315 316 316 316 316 316 314 314 314 315 315 315 315 315 315 314 314 313 313 315 315 317 315 314 315 316 315 315 316 316 316 315 316 317 317 317 315 316 315 316
312 314 314 314 314 315 315 315 316 317 315 314 315 315 315 315 313 313 313 313 313 313 315 314 316 315 313 312 312 312 312 313 317 317 318 316 316 316 316 316 317 315 314 314 315
311 310 310 310 311 315 315 315 316 316 314 313 314 313 312 312 311 312 311 311 312 312 313 313 312 311 311 312 313 313 313 313 313 312 312 314 314 314 314 314 316 315 315 315 317
309 308 308 309 312 315 315 314 314 313 312 312 312 312 311 311 309 309 308 308 309 309 310 311 311 313 314 313 313 314 313 314 315 315 315 316 316 315 316 318 317 317 317 317 318
Wind_Speed
13 13 13 12 12 10 10 9 7 7 6 5 6 7 8 8 7 7 6 7 9 15 13 13 9 14 16 20 23 24 15 16 24 23 20 26 18 20 18 13 19 17 27 25 5
14 14 13 13 12 12 11 10 10 8 7 6 6 7 8 8 10 12 13 12 12 7 5 6 10 13 19 22 23 20 17 25 22 22 20 24 24 23 21 18 17 26 25 21 11
14 13 13 13 12 12 11 11 11 10 9 7 6 7 7 9 11 4 9 7 1 3 4 6 9 13 18 20 24 25 22 22 25 27 28 27 28 29 19 15 17 26 36 27 17
13 13 12 12 12 11 11 11 11 9 9 7 6 7 8 7 3 7 3 2 2 2 2 7 8 14 14 16 24 24 29 30 29 29 30 24 30 26 31 19 25 29 31 37 30
12 11 11 10 10 11 11 10 8 7 7 6 6 7 6 9 15 6 4 2 1 4 8 8 9 14 15 18 22 22 23 28 28 29 31 29 30 28 29 30 24 22 23 24 32
17 10 9 10 10 9 7 7 6 6 5 5 6 5 6 13 5 3 3 3 4 7 9 7 10 8 12 16 17 22 22 22 27 26 27 26 22 27 35 30 24 27 22 21 28
17 13 8 7 7 8 7 6 5 4 3 3 5 6 10 19 4 5 6 8 7 7 8 8 9 10 11 13 14 18 18 19 22 20 22 27 24 25 31 31 29 32 33 23 23
16 13 9 6 4 4 3 5 5 4 2 3 4 5 10 5 13 10 8 8 9 9 9 10 10 14 15 17 19 16 16 17 19 23 28 23 26 23 28 28 31 33 32 33 20
15 13 10 6 2 3 1 4 3 1 2 4 4 5 13 7 11 11 10 11 9 9 10 10 11 14 16 14 14 14 16 21 22 22 19 24 26 22 27 28 28 28 23 29 18
15 11 7 4 2 4 2 3 4 3 5 5 9 9 14 12 7 11 9 10 9 11 12 13 14 11 13 12 13 18 19 15 17 14 9 14 18 17 28 23 27 23 19 18 21
15 10 5 2 1 4 6 7 4 5 13 15 3 12 4 4 5 9 10 10 10 12 12 16 12 13 16 16 19 18 18 17 20 19 15 16 16 14 20 24 21 17 21 21 22
17 10 4 2 1 1 4 4 6 9 12 20 23 18 15 6 9 13 12 12 13 13 14 15 14 15 16 17 17 14 17 19 20 20 19 21 21 17 16 21 27 24 23 24 25
17 11 4 1 1 2 5 7 9 11 9 18 16 15 14 13 15 13 14 16 14 16 16 16 16 17 11 14 16 15 18 18 20 19 21 21 20 18 22 27 32 35 30 23 22
15 10 2 1 4 6 6 7 10 8 6 11 10 11 14 13 16 17 11 14 15 18 17 16 17 13 15 12 18 16 18 17 18 16 16 14 16 20 20 18 17 14 24 24 30
13 8 2 4 8 9 9 11 9 5 5 8 12 8 8 15 3 11 12 13 15 17 17 19 17 17 17 15 17 17 15 17 20 18 18 22 14 19 20 21 21 19 24 18 12
13 6 3 4 10 6 12 10 5 6 8 8 7 7 10 16 16 14 11 14 16 17 18 22 27 23 23 18 17 16 14 17 21 15 16 25 20 21 19 21 17 13 12 11 14
17 11 8 9 8 11 11 8 7 7 2 4 4 7 11 13 15 15 15 17 15 17 19 22 23 24 22 25 23 17 18 13 15 13 17 23 20 10 21 6 7 10 11 8 10
21 16 13 12 9 10 8 8 9 12 15 6 4 12 15 17 17 17 17 16 15 18 18 19 20 18 18 13 18 18 17 10 14 15 17 24 13 9 12 20 14 12 20 19 17
23 8 8 8 6 6 9 8 9 14 13 11 14 17 18 16 17 7 13 16 16 15 17 18 24 22 20 12 13 16 16 18 12 9 12 17 28 25 17 17 7 14 12 11 10
21 7 11 9 7 4 7 12 20 21 7 11 17 13 17 16 16 12 12 8 12 12 11 17 20 17 21 19 9 19 16 15 7 6 11 16 17 13 14 13 18 14 14 14 14
13 8 6 6 5 8 8 14 17 16 15 10 15 17 19 18 20 19 19 19 18 20 13 15 17 18 17 17 21 12 13 7 14 14 16 16 14 6 2 9 7 13 15 15 19
9 6 3 2 8 12 12 11 12 18 18 13 16 18 18 18 18 19 19 19 20 22 13 16 12 15 17 21 24 19 14 18 6 6 12 7 17 12 5 5 11 34 17 20 14
14 18 10 4 5 9 12 13 19 15 11 14 16 18 16 18 18 18 16 20 24 18 11 8 7 12 17 19 5 4 17 13 10 4 10 8 14 11 12 4 6 22 35 38 20
9 5 7 11 13 8 13 14 15 23 16 10 13 13 16 17 17 17 20 17 20 22 11 3 10 16 14 21 21 22 16 12 10 3 11 15 19 20 7 9 13 16 31 29 41
8 8 6 7 12 16 16 17 18 18 15 15 15 17 18 17 18 18 19 19 19 23 1 3 13 17 20 21 22 24 26 24 22 22 17 21 20 23 18 15 19 28 23 26 33
16 11 14 20 19 14 12 15 19 14 16 18 17 16 16 17 16 20 20 17 17 16 17 14 16 18 22 19 22 24 24 25 25 23 23 21 24 20 20 26 23 30 33 28 31
13 13 12 11 14 12 11 14 20 20 15 15 20 18 15 17 23 24 24 23 19 17 15 14 12 13 16 18 19 19 20 17 20 21 17 19 21 16 18 16 17 8 13 11 20
Wind_Direction
337 334 333 328 324 316 308 302 293 284 282 287 300 308 305 295 279 283 264 238 235 262 257 238 240 236 236 239 238 238 245 250 252 255 261 267 266 192 195 219 228 245 257 306 28
330 329 330 328 323 315 308 298 290 283 280 287 307 314 308 295 286 275 226 256 268 246 193 231 240 234 236 233 234 235 241 243 248 258 269 272 271 262 178 192 221 229 250 273 323
326 325 325 325 321 316 313 303 296 286 279 282 301 310 302 305 308 165 209 264 242 166 150 279 258 259 240 239 236 231 244 254 253 258 260 263 273 276 252 200 212 215 246 250 276
331 322 319 322 321 316 312 306 298 284 275 278 291 303 295 299 320 172 254 274 59 88 268 257 253 246 246 245 242 250 246 251 257 262 270 276 278 273 269 255 206 211 224 249 248
337 329 321 322 322 321 319 313 304 286 272 264 271 291 288 265 264 200 266 281 267 347 278 256 260 246 248 249 251 247 254 256 264 261 263 271 272 279 275 268 271 219 202 222 253
331 329 323 324 323 325 331 332 322 303 277 248 251 273 282 265 145 228 190 221 290 258 276 270 278 319 309 285 278 271 267 269 263 268 271 266 261 268 266 264 258 261 199 212 236
328 322 319 320 326 333 339 339 326 314 293 254 260 281 272 242 253 225 208 231 250 264 272 264 273 287 288 289 268 273 269 268 268 260 264 261 259 245 258 261 263 254 258 230 216
332 323 315 322 336 344 342 339 317 297 277 241 252 273 260 287 241 234 235 248 255 257 263 277 282 277 277 281 285 270 264 265 258 247 244 242 256 255 254 253 255 256 258 257 228
335 327 316 318 349 6 358 5 3 281 245 228 225 243 266 210 233 232 235 247 246 249 263 267 274 272 275 263 262 243 255 255 256 243 238 228 239 249 252 260 262 238 264 246 231
341 333 319 310 332 357 342 306 303 263 276 243 243 259 255 253 214 223 234 240 267 265 261 250 256 257 247 244 259 270 263 273 264 255 203 239 264 275 271 266 266 230 246 260 263
346 335 322 283 308 4 345 311 293 233 222 238 262 239 282 233 219 228 228 234 250 254 265 261 240 250 254 254 255 276 294 298 292 298 310 275 248 260 286 280 258 229 235 237 246
353 340 320 212 236 18 358 289 351 313 293 253 244 250 252 247 260 225 228 226 232 247 259 241 251 254 263 276 286 294 286 279 279 278 277 275 270 272 271 274 273 266 225 217 224
350 344 320 186 293 264 341 327 320 317 278 289 219 235 231 226 239 256 208 229 244 264 255 267 278 291 296 283 278 260 264 274 280 291 290 292 282 275 267 258 256 256 258 250 229
355 345 323 235 311 307 269 321 325 314 277 225 195 237 214 211 246 237 246 233 243 247 264 275 290 283 299 272 272 272 274 282 291 289 283 280 281 276 283 285 244 264 231 245 233
354 347 283 276 320 318 319 315 306 290 285 153 159 126 199 209 355 208 223 234 252 272 279 275 271 273 253 252 278 270 290 301 296 288 286 273 268 272 267 261 251 243 212 224 222
331 324 284 310 301 318 323 311 303 243 258 161 158 216 223 222 249 261 202 229 263 281 281 281 278 278 275 268 247 265 289 283 277 270 258 262 256 262 256 255 272 218 176 193 195
327 288 264 276 280 317 312 286 251 244 118 238 209 230 248 259 260 230 232 240 248 260 261 266 260 245 247 257 253 239 259 261 261 245 251 254 262 339 292 247 347 133 157 180 181
328 296 259 258 275 305 304 259 255 284 310 41 335 292 272 281 275 270 269 263 259 265 265 274 273 274 289 315 249 278 247 254 264 277 288 300 285 261 271 319 176 155 177 178 200
341 333 283 251 249 286 277 243 248 280 340 337 325 291 277 270 251 269 282 289 288 278 282 299 294 303 293 308 297 285 272 285 306 314 290 280 285 285 251 227 236 174 191 206 194
343 303 264 198 221 262 258 256 287 292 333 310 295 300 291 296 307 297 267 269 297 297 274 282 293 291 297 302 239 263 263 251 233 253 263 265 270 318 333 329 213 191 202 203 203
343 286 186 186 255 245 246 266 293 334 340 312 298 297 301 305 303 298 294 295 294 292 292 280 279 287 301 278 275 302 307 329 316 277 263 272 273 201 273 1 307 236 209 199 213
331 284 190 193 255 247 245 288 338 311 300 286 285 283 278 287 286 287 292 298 305 291 282 293 315 290 270 274 291 309 244 265 246 307 276 259 270 286 141 336 24 313 278 259 216
317 289 239 212 259 300 319 316 321 309 318 316 304 299 302 296 290 288 286 299 304 298 317 352 241 290 291 287 289 41 305 311 294 331 265 288 278 277 120 146 315 306 302 309 256
300 302 213 221 256 264 295 312 305 313 300 284 294 303 300 284 278 284 288 284 295 294 164 186 264 271 277 278 295 295 257 227 220 196 256 258 286 291 264 227 216 212 271 302 291
270 294 343 300 322 328 312 298 300 297 322 322 312 300 291 297 300 296 300 307 303 301 216 248 271 273 282 288 286 289 282 277 229 233 247 263 260 269 275 265 227 218 249 273 249
299 335 319 298 294 298 292 292 297 309 334 311 300 309 308 292 298 304 304 300 296 309 309 307 292 284 281 293 292 287 292 289 277 275 276 262 268 279 273 265 261 222 239 237 256
319 317 284 283 297 294 295 304 312 317 309 302 309 310 289 296 304 301 290 283 280 280 279 280 289 293 286 294 297 292 280 274 291 293 282 279 288 297 312 332 337 303 285 313 308